Time,TemperatureF,DewpointF,PressureIn,WindDirection,WindDirectionDegrees,WindSpeedMPH,WindSpeedGustMPH,Humidity,HourlyPrecipIn,Conditions,Clouds,dailyrainin,SoftwareType,DateUTC
2013-07-04 00:01:00,70.1,68.6,29.89,WSW,246,4.0,6.0,95,0.00,,---,0.00,VWS V13.01,2013-07-04 04:01:00,
2013-07-04 00:02:00,70.1,68.6,29.89,WSW,246,4.0,6.0,95,0.00,,---,0.00,VWS V13.01,2013-07-04 04:02:00,
2013-07-04 00:05:00,70.0,68.5,29.89,WSW,246,0.0,6.0,95,0.00,,---,0.00,VWS V13.01,2013-07-04 04:05:00,
2013-07-04 00:10:00,69.8,68.0,29.89,WSW,246,0.0,6.0,94,0.00,,---,0.00,VWS V13.01,2013-07-04 04:10:00,
2013-07-04 00:16:00,69.8,68.0,29.89,WSW,246,0.0,6.0,94,0.00,,---,0.00,VWS V13.01,2013-07-04 04:16:00,
2013-07-04 00:21:00,69.7,67.9,29.89,WSW,246,0.0,6.0,94,0.00,,---,0.00,VWS V13.01,2013-07-04 04:21:00,
2013-07-04 00:26:00,69.7,67.9,29.89,WSW,246,0.0,6.0,94,0.00,,---,0.00,VWS V13.01,2013-07-04 04:26:00,
2013-07-04 00:31:00,69.7,68.2,29.89,WSW,246,0.0,0.0,95,0.00,,---,0.00,VWS V13.01,2013-07-04 04:31:00,
2013-07-04 00:36:00,69.7,68.2,29.88,WSW,246,0.0,0.0,95,0.00,,---,0.00,VWS V13.01,2013-07-04 04:36:00,
2013-07-04 00:41:00,69.6,67.8,29.88,WSW,246,0.0,0.0,94,0.00,,---,0.00,VWS V13.01,2013-07-04 04:41:00,
2013-07-04 00:46:00,69.5,67.7,29.88,WSW,246,0.0,0.0,94,0.00,,---,0.00,VWS V13.01,2013-07-04 04:46:00,
2013-07-04 00:51:00,69.5,68.0,29.88,WSW,246,0.0,2.0,95,0.00,,---,0.00,VWS V13.01,2013-07-04 04:51:00,
2013-07-04 00:56:00,69.5,68.0,29.88,WSW,246,0.0,2.0,95,0.00,,---,0.00,VWS V13.01,2013-07-04 04:56:00,
2013-07-04 01:01:00,69.4,67.9,29.88,WSW,246,0.0,0.0,95,0.00,,---,0.00,VWS V13.01,2013-07-04 05:01:00,
2013-07-04 01:06:00,69.4,67.9,29.89,WSW,246,0.0,0.0,95,0.00,,---,0.00,VWS V13.01,2013-07-04 05:06:00,
2013-07-04 01:11:00,69.3,67.8,29.89,WSW,246,0.0,0.0,95,0.00,,---,0.00,VWS V13.01,2013-07-04 05:11:00,
2013-07-04 01:16:00,69.2,67.7,29.89,WSW,246,0.0,0.0,95,0.00,,---,0.00,VWS V13.01,2013-07-04 05:16:00,
2013-07-04 01:21:00,69.0,67.5,29.89,WSW,246,0.0,0.0,95,0.00,,---,0.00,VWS V13.01,2013-07-04 05:21:00,
2013-07-04 01:26:00,68.9,67.7,29.89,WSW,246,0.0,0.0,96,0.00,,---,0.00,VWS V13.01,2013-07-04 05:26:00,
2013-07-04 01:32:00,69.0,67.8,29.89,WSW,246,0.0,0.0,96,0.00,,---,0.00,VWS V13.01,2013-07-04 05:32:00,
2013-07-04 01:37:00,69.1,67.9,29.89,WSW,246,0.0,0.0,96,0.00,,---,0.00,VWS V13.01,2013-07-04 05:37:00,
2013-07-04 01:42:00,69.1,67.9,29.89,WSW,246,0.0,1.0,96,0.00,,---,0.00,VWS V13.01,2013-07-04 05:42:00,
2013-07-04 01:47:00,69.0,67.8,29.89,WSW,246,0.0,1.0,96,0.00,,---,0.00,VWS V13.01,2013-07-04 05:47:00,
2013-07-04 01:52:00,68.9,67.7,29.89,WSW,246,0.0,1.0,96,0.00,,---,0.00,VWS V13.01,2013-07-04 05:52:00,
2013-07-04 01:57:00,68.9,67.7,29.89,WSW,246,0.0,1.0,96,0.00,,---,0.00,VWS V13.01,2013-07-04 05:57:00,
2013-07-04 02:02:00,68.9,67.7,29.89,WSW,246,0.0,1.0,96,0.00,,---,0.00,VWS V13.01,2013-07-04 06:02:00,
2013-07-04 02:07:00,68.9,67.7,29.88,WSW,246,0.0,1.0,96,0.00,,---,0.00,VWS V13.01,2013-07-04 06:07:00,
2013-07-04 02:13:00,68.9,67.7,29.89,WSW,246,0.0,1.0,96,0.00,,---,0.00,VWS V13.01,2013-07-04 06:13:00,
2013-07-04 02:18:00,68.8,67.6,29.89,WSW,246,0.0,1.0,96,0.00,,---,0.00,VWS V13.01,2013-07-04 06:18:00,
2013-07-04 02:23:00,68.8,67.6,29.89,WSW,246,0.0,1.0,96,0.00,,---,0.00,VWS V13.01,2013-07-04 06:23:00,
2013-07-04 02:28:00,68.8,67.6,29.88,WSW,246,0.0,1.0,96,0.00,,---,0.00,VWS V13.01,2013-07-04 06:28:00,
2013-07-04 02:33:00,68.6,67.4,29.88,WSW,246,0.0,0.0,96,0.00,,---,0.00,VWS V13.01,2013-07-04 06:33:00,
2013-07-04 02:38:00,68.5,67.3,29.88,WSW,246,0.0,0.0,96,0.00,,---,0.00,VWS V13.01,2013-07-04 06:38:00,
2013-07-04 02:43:00,68.5,67.3,29.88,WSW,246,0.0,0.0,96,0.00,,---,0.00,VWS V13.01,2013-07-04 06:43:00,
2013-07-04 02:48:00,68.5,67.3,29.88,WSW,246,0.0,0.0,96,0.00,,---,0.00,VWS V13.01,2013-07-04 06:48:00,
2013-07-04 02:53:00,68.5,67.3,29.88,WSW,246,0.0,0.0,96,0.00,,---,0.00,VWS V13.01,2013-07-04 06:53:00,
2013-07-04 02:58:00,68.4,67.2,29.87,WSW,246,0.0,0.0,96,0.00,,---,0.00,VWS V13.01,2013-07-04 06:58:00,
2013-07-04 03:03:00,68.3,67.1,29.87,WSW,246,0.0,0.0,96,0.00,,---,0.00,VWS V13.01,2013-07-04 07:03:00,
2013-07-04 03:08:00,68.2,67.0,29.87,WSW,246,0.0,0.0,96,0.00,,---,0.00,VWS V13.01,2013-07-04 07:08:00,
2013-07-04 03:13:00,68.1,66.9,29.87,WSW,246,0.0,0.0,96,0.00,,---,0.00,VWS V13.01,2013-07-04 07:13:00,
2013-07-04 03:18:00,68.1,67.2,29.88,WSW,246,0.0,0.0,97,0.00,,---,0.00,VWS V13.01,2013-07-04 07:18:00,
2013-07-04 03:24:00,68.0,67.1,29.88,WSW,246,0.0,0.0,97,0.00,,---,0.00,VWS V13.01,2013-07-04 07:24:00,
2013-07-04 03:29:00,67.9,67.0,29.88,WSW,246,0.0,0.0,97,0.00,,---,0.00,VWS V13.01,2013-07-04 07:29:00,
2013-07-04 03:34:00,68.0,67.1,29.88,WSW,246,0.0,1.0,97,0.00,,---,0.00,VWS V13.01,2013-07-04 07:34:00,
2013-07-04 03:39:00,67.9,67.0,29.88,WSW,246,0.0,1.0,97,0.00,,---,0.00,VWS V13.01,2013-07-04 07:39:00,
2013-07-04 03:44:00,67.9,67.0,29.88,WSW,246,0.0,1.0,97,0.00,,---,0.00,VWS V13.01,2013-07-04 07:44:00,
2013-07-04 03:49:00,67.9,67.0,29.88,WSW,246,0.0,1.0,97,0.00,,---,0.00,VWS V13.01,2013-07-04 07:49:00,
2013-07-04 03:54:00,67.8,66.9,29.88,WSW,246,0.0,1.0,97,0.00,,---,0.00,VWS V13.01,2013-07-04 07:54:00,
2013-07-04 03:59:00,67.8,66.9,29.88,WSW,246,0.0,1.0,97,0.00,,---,0.00,VWS V13.01,2013-07-04 07:59:00,
2013-07-04 04:04:00,67.8,66.9,29.88,WSW,246,0.0,0.0,97,0.00,,---,0.00,VWS V13.01,2013-07-04 08:04:00,
2013-07-04 04:09:00,67.9,67.0,29.88,WSW,246,0.0,0.0,97,0.00,,---,0.00,VWS V13.01,2013-07-04 08:09:00,
2013-07-04 04:14:00,67.8,66.9,29.88,WSW,246,0.0,0.0,97,0.00,,---,0.00,VWS V13.01,2013-07-04 08:14:00,
2013-07-04 04:19:00,67.8,66.9,29.88,WSW,246,0.0,0.0,97,0.00,,---,0.00,VWS V13.01,2013-07-04 08:19:00,
2013-07-04 04:24:00,67.9,67.0,29.88,WSW,246,0.0,0.0,97,0.00,,---,0.00,VWS V13.01,2013-07-04 08:24:00,
2013-07-04 04:29:00,67.9,67.3,29.89,WSW,246,0.0,0.0,98,0.00,,---,0.00,VWS V13.01,2013-07-04 08:29:00,
2013-07-04 04:35:00,67.9,67.3,29.88,WSW,246,0.0,0.0,98,0.00,,---,0.00,VWS V13.01,2013-07-04 08:35:00,
2013-07-04 04:40:00,67.9,67.3,29.89,WSW,246,0.0,0.0,98,0.00,,---,0.00,VWS V13.01,2013-07-04 08:40:00,
2013-07-04 04:45:00,67.9,67.3,29.89,WSW,246,0.0,0.0,98,0.00,,---,0.00,VWS V13.01,2013-07-04 08:45:00,
2013-07-04 04:50:00,67.8,67.2,29.89,WSW,246,0.0,0.0,98,0.00,,---,0.00,VWS V13.01,2013-07-04 08:50:00,
2013-07-04 04:55:00,67.8,67.2,29.88,WSW,246,0.0,0.0,98,0.00,,---,0.00,VWS V13.01,2013-07-04 08:55:00,
2013-07-04 05:00:00,67.8,67.2,29.89,WSW,246,0.0,0.0,98,0.00,,---,0.00,VWS V13.01,2013-07-04 09:00:00,
2013-07-04 05:05:00,67.8,67.2,29.89,WSW,246,0.0,0.0,98,0.00,,---,0.00,VWS V13.01,2013-07-04 09:05:00,
2013-07-04 05:10:00,67.8,67.2,29.89,WSW,246,0.0,0.0,98,0.00,,---,0.00,VWS V13.01,2013-07-04 09:10:00,
2013-07-04 05:15:00,67.9,67.3,29.89,WSW,246,0.0,0.0,98,0.00,,---,0.00,VWS V13.01,2013-07-04 09:15:00,
2013-07-04 05:20:00,68.0,67.4,29.89,WSW,246,0.0,1.0,98,0.00,,---,0.00,VWS V13.01,2013-07-04 09:20:00,
2013-07-04 05:25:00,68.0,67.4,29.89,WSW,246,0.0,1.0,98,0.00,,---,0.00,VWS V13.01,2013-07-04 09:25:00,
2013-07-04 05:30:00,68.0,67.4,29.89,WSW,246,0.0,0.0,98,0.00,,---,0.00,VWS V13.01,2013-07-04 09:30:00,
2013-07-04 05:35:00,67.9,67.3,29.89,WSW,246,0.0,0.0,98,0.00,,---,0.00,VWS V13.01,2013-07-04 09:35:00,
2013-07-04 05:41:00,67.8,67.2,29.89,WSW,246,0.0,1.0,98,0.00,,---,0.00,VWS V13.01,2013-07-04 09:41:00,
2013-07-04 05:46:00,67.7,67.1,29.88,WSW,246,0.0,1.0,98,0.00,,---,0.00,VWS V13.01,2013-07-04 09:46:00,
2013-07-04 05:51:00,67.7,67.1,29.88,WSW,246,0.0,1.0,98,0.00,,---,0.00,VWS V13.01,2013-07-04 09:51:00,
2013-07-04 05:56:00,67.7,67.1,29.89,WSW,246,0.0,1.0,98,0.00,,---,0.00,VWS V13.01,2013-07-04 09:56:00,
2013-07-04 06:01:00,67.7,67.1,29.89,WSW,246,0.0,0.0,98,0.00,,---,0.00,VWS V13.01,2013-07-04 10:01:00,
2013-07-04 06:06:00,67.7,67.1,29.89,WSW,246,0.0,0.0,98,0.00,,---,0.00,VWS V13.01,2013-07-04 10:06:00,
2013-07-04 06:11:00,67.7,67.1,29.89,WSW,246,0.0,0.0,98,0.00,,---,0.00,VWS V13.01,2013-07-04 10:11:00,
2013-07-04 06:16:00,67.7,67.1,29.89,WSW,246,0.0,0.0,98,0.00,,---,0.00,VWS V13.01,2013-07-04 10:16:00,
2013-07-04 06:21:00,67.8,67.2,29.90,WSW,246,0.0,0.0,98,0.00,,---,0.00,VWS V13.01,2013-07-04 10:21:00,
2013-07-04 06:26:00,67.9,67.3,29.90,WSW,246,0.0,0.0,98,0.00,,---,0.00,VWS V13.01,2013-07-04 10:26:00,
2013-07-04 06:31:00,67.9,67.3,29.90,WSW,246,0.0,0.0,98,0.00,,---,0.00,VWS V13.01,2013-07-04 10:31:00,
2013-07-04 06:36:00,68.1,67.5,29.90,WSW,246,0.0,1.0,98,0.00,,---,0.00,VWS V13.01,2013-07-04 10:36:00,
2013-07-04 06:41:00,68.1,67.5,29.90,WSW,246,0.0,1.0,98,0.00,,---,0.00,VWS V13.01,2013-07-04 10:41:00,
2013-07-04 06:46:00,68.1,67.5,29.90,WSW,246,0.0,1.0,98,0.00,,---,0.00,VWS V13.01,2013-07-04 10:46:00,
2013-07-04 06:51:00,68.2,67.6,29.90,WSW,246,0.0,1.0,98,0.00,,---,0.00,VWS V13.01,2013-07-04 10:51:00,
2013-07-04 06:57:00,68.3,67.7,29.91,WSW,246,0.0,1.0,98,0.00,,---,0.00,VWS V13.01,2013-07-04 10:57:00,
2013-07-04 07:02:00,68.4,67.8,29.90,WSW,246,0.0,0.0,98,0.00,,---,0.00,VWS V13.01,2013-07-04 11:02:00,
2013-07-04 07:07:00,68.5,67.9,29.91,WSW,246,0.0,0.0,98,0.00,,---,0.00,VWS V13.01,2013-07-04 11:07:00,
2013-07-04 07:12:00,68.6,68.3,29.91,WSW,246,0.0,0.0,99,0.00,,---,0.00,VWS V13.01,2013-07-04 11:12:00,
2013-07-04 07:17:00,68.7,68.4,29.91,WSW,246,0.0,1.0,99,0.00,,---,0.00,VWS V13.01,2013-07-04 11:17:00,
2013-07-04 07:22:00,68.8,68.5,29.91,WSW,246,0.0,1.0,99,0.00,,---,0.00,VWS V13.01,2013-07-04 11:22:00,
2013-07-04 07:27:00,68.8,68.2,29.92,WSW,246,0.0,1.0,98,0.02,,---,0.02,VWS V13.01,2013-07-04 11:27:00,
2013-07-04 07:32:00,68.8,68.2,29.92,WSW,246,0.0,0.0,98,0.08,,---,0.08,VWS V13.01,2013-07-04 11:32:00,
2013-07-04 07:37:00,68.9,68.3,29.92,WSW,246,0.0,1.0,98,0.08,,---,0.08,VWS V13.01,2013-07-04 11:37:00,
2013-07-04 07:42:00,69.1,68.5,29.92,WSW,246,0.0,1.0,98,0.08,,---,0.08,VWS V13.01,2013-07-04 11:42:00,
2013-07-04 07:47:00,69.2,68.6,29.92,WSW,246,0.0,1.0,98,0.08,,---,0.08,VWS V13.01,2013-07-04 11:47:00,
2013-07-04 07:53:00,69.3,69.0,29.92,WSW,246,0.0,1.0,99,0.08,,---,0.08,VWS V13.01,2013-07-04 11:53:00,
2013-07-04 07:58:00,69.4,69.1,29.92,WSW,246,0.0,1.0,99,0.08,,---,0.08,VWS V13.01,2013-07-04 11:58:00,
2013-07-04 08:03:00,69.3,68.7,29.92,WSW,246,0.0,1.0,98,0.08,,---,0.08,VWS V13.01,2013-07-04 12:03:00,
2013-07-04 08:08:00,69.1,68.5,29.92,WSW,246,0.0,1.0,98,0.08,,---,0.08,VWS V13.01,2013-07-04 12:08:00,
2013-07-04 08:13:00,69.2,68.6,29.92,WSW,246,0.0,1.0,98,0.08,,---,0.08,VWS V13.01,2013-07-04 12:13:00,
2013-07-04 08:18:00,69.3,68.7,29.93,WSW,246,0.0,1.0,98,0.08,,---,0.08,VWS V13.01,2013-07-04 12:18:00,
2013-07-04 08:23:00,69.4,68.8,29.92,WSW,246,0.0,1.0,98,0.08,,---,0.08,VWS V13.01,2013-07-04 12:23:00,
2013-07-04 08:28:00,69.5,68.6,29.93,WSW,246,0.0,1.0,97,0.08,,---,0.08,VWS V13.01,2013-07-04 12:28:00,
2013-07-04 08:33:00,69.7,68.8,29.93,WSW,246,0.0,3.0,97,0.01,,---,0.08,VWS V13.01,2013-07-04 12:33:00,
2013-07-04 08:38:00,70.0,69.1,29.93,WSW,246,0.0,4.0,97,0.01,,---,0.08,VWS V13.01,2013-07-04 12:38:00,
2013-07-04 08:43:00,70.4,69.5,29.93,WSW,246,3.0,6.0,97,0.01,,---,0.08,VWS V13.01,2013-07-04 12:43:00,
2013-07-04 08:49:00,70.5,69.3,29.93,WSW,246,0.0,6.0,96,0.01,,---,0.08,VWS V13.01,2013-07-04 12:49:00,
2013-07-04 08:54:00,70.4,68.9,29.93,WSW,247,0.0,8.0,95,0.01,,---,0.08,VWS V13.01,2013-07-04 12:54:00,
2013-07-04 08:59:00,70.6,69.1,29.93,WSW,246,0.0,8.0,95,0.01,,---,0.08,VWS V13.01,2013-07-04 12:59:00,
2013-07-04 09:04:00,70.6,69.1,29.93,WSW,246,0.0,1.0,95,0.00,,---,0.08,VWS V13.01,2013-07-04 13:04:00,
2013-07-04 09:09:00,70.7,69.2,29.93,WSW,246,0.0,1.0,95,0.00,,---,0.08,VWS V13.01,2013-07-04 13:09:00,
2013-07-04 09:14:00,70.7,69.2,29.93,WSW,246,0.0,1.0,95,0.00,,---,0.08,VWS V13.01,2013-07-04 13:14:00,
2013-07-04 09:19:00,70.7,69.2,29.93,WSW,247,0.0,1.0,95,0.00,,---,0.08,VWS V13.01,2013-07-04 13:19:00,
2013-07-04 09:24:00,70.8,69.3,29.93,WSW,247,0.0,1.0,95,0.00,,---,0.08,VWS V13.01,2013-07-04 13:24:00,
2013-07-04 09:29:00,70.9,69.4,29.93,WSW,246,0.0,5.0,95,0.00,,---,0.08,VWS V13.01,2013-07-04 13:29:00,
2013-07-04 09:34:00,71.2,69.7,29.92,WSW,247,0.0,1.0,95,0.00,,---,0.08,VWS V13.01,2013-07-04 13:34:00,
2013-07-04 09:39:00,71.1,69.3,29.92,WSW,247,0.0,1.0,94,0.00,,---,0.08,VWS V13.01,2013-07-04 13:39:00,
2013-07-04 09:44:00,71.3,69.5,29.92,WSW,246,0.0,1.0,94,0.00,,---,0.08,VWS V13.01,2013-07-04 13:44:00,
2013-07-04 09:50:00,71.4,69.6,29.92,WSW,247,0.0,1.0,94,0.00,,---,0.08,VWS V13.01,2013-07-04 13:50:00,
2013-07-04 09:55:00,71.7,69.9,29.93,WSW,247,3.0,3.0,94,0.00,,---,0.08,VWS V13.01,2013-07-04 13:55:00,
2013-07-04 10:00:00,71.8,69.3,29.93,WSW,247,0.0,3.0,92,0.00,,---,0.08,VWS V13.01,2013-07-04 14:00:00,
2013-07-04 10:05:00,72.0,69.6,29.93,WSW,246,0.0,1.0,92,0.00,,---,0.08,VWS V13.01,2013-07-04 14:05:00,
2013-07-04 10:10:00,72.3,69.5,29.93,WSW,246,0.0,3.0,91,0.00,,---,0.08,VWS V13.01,2013-07-04 14:10:00,
2013-07-04 10:15:00,72.7,69.9,29.92,WSW,247,0.0,3.0,91,0.00,,---,0.08,VWS V13.01,2013-07-04 14:15:00,
2013-07-04 10:20:00,73.0,70.2,29.92,WSW,247,0.0,3.0,91,0.00,,---,0.08,VWS V13.01,2013-07-04 14:20:00,
2013-07-04 10:25:00,73.2,70.1,29.92,WSW,246,0.0,3.0,90,0.00,,---,0.08,VWS V13.01,2013-07-04 14:25:00,
2013-07-04 10:30:00,73.3,69.9,29.92,WSW,247,0.0,0.0,89,0.00,,---,0.08,VWS V13.01,2013-07-04 14:30:00,
2013-07-04 10:35:00,73.6,70.2,29.92,WSW,247,0.0,2.0,89,0.00,,---,0.08,VWS V13.01,2013-07-04 14:35:00,
2013-07-04 10:41:00,73.9,70.1,29.92,WSW,248,0.0,2.0,88,0.00,,---,0.08,VWS V13.01,2013-07-04 14:41:00,
2013-07-04 10:46:00,74.0,69.9,29.92,WSW,248,0.0,5.0,87,0.00,,---,0.08,VWS V13.01,2013-07-04 14:46:00,
2013-07-04 10:51:00,74.3,70.2,29.92,WSW,248,0.0,5.0,87,0.00,,---,0.08,VWS V13.01,2013-07-04 14:51:00,
2013-07-04 10:56:00,74.6,70.8,29.92,WSW,248,0.0,5.0,88,0.00,,---,0.08,VWS V13.01,2013-07-04 14:56:00,
2013-07-04 11:01:00,74.6,70.5,29.92,WSW,249,0.0,5.0,87,0.00,,---,0.08,VWS V13.01,2013-07-04 15:01:00,
2013-07-04 11:06:00,74.3,70.5,29.92,WSW,249,0.0,5.0,88,0.00,,---,0.08,VWS V13.01,2013-07-04 15:06:00,
2013-07-04 11:11:00,74.4,70.9,29.92,WSW,250,0.0,5.0,89,0.00,,---,0.08,VWS V13.01,2013-07-04 15:11:00,
2013-07-04 11:17:00,74.5,70.4,29.92,WSW,250,0.0,5.0,87,0.00,,---,0.08,VWS V13.01,2013-07-04 15:17:00,
2013-07-04 11:22:00,74.3,69.8,29.92,WSW,253,0.0,7.0,86,0.00,,---,0.08,VWS V13.01,2013-07-04 15:22:00,
2013-07-04 11:27:00,74.2,70.4,29.92,WSW,254,1.0,7.0,88,0.00,,---,0.08,VWS V13.01,2013-07-04 15:27:00,
2013-07-04 11:32:00,74.2,70.4,29.92,WSW,254,0.0,2.0,88,0.00,,---,0.08,VWS V13.01,2013-07-04 15:32:00,
2013-07-04 11:37:00,74.1,70.3,29.92,WSW,254,0.0,6.0,88,0.01,,---,0.09,VWS V13.01,2013-07-04 15:37:00,
2013-07-04 11:42:00,73.8,70.0,29.93,WSW,256,0.0,6.0,88,0.01,,---,0.09,VWS V13.01,2013-07-04 15:42:00,
2013-07-04 11:47:00,73.3,69.9,29.93,SW,236,0.0,6.0,89,0.01,,---,0.09,VWS V13.01,2013-07-04 15:47:00,
2013-07-04 11:52:00,72.6,69.5,29.93,SSW,211,0.0,6.0,90,0.01,,---,0.09,VWS V13.01,2013-07-04 15:52:00,
2013-07-04 11:57:00,72.3,69.5,29.92,SSW,211,0.0,6.0,91,0.02,,---,0.10,VWS V13.01,2013-07-04 15:57:00,
2013-07-04 12:02:00,72.1,69.3,29.92,SSW,211,0.0,0.0,91,0.03,,---,0.11,VWS V13.01,2013-07-04 16:02:00,
2013-07-04 12:07:00,72.2,69.8,29.92,SSW,211,0.0,1.0,92,0.03,,---,0.11,VWS V13.01,2013-07-04 16:07:00,
2013-07-04 12:12:00,72.6,70.2,29.92,SSW,210,0.0,6.0,92,0.03,,---,0.11,VWS V13.01,2013-07-04 16:12:00,
2013-07-04 12:17:00,73.1,70.3,29.92,SSW,211,0.0,6.0,91,0.03,,---,0.11,VWS V13.01,2013-07-04 16:17:00,
2013-07-04 12:23:00,73.6,70.8,29.92,SSW,210,0.0,6.0,91,0.03,,---,0.11,VWS V13.01,2013-07-04 16:23:00,
2013-07-04 12:28:00,74.0,70.6,29.92,SSW,211,0.0,6.0,89,0.03,,---,0.11,VWS V13.01,2013-07-04 16:28:00,
2013-07-04 12:33:00,74.7,70.9,29.92,SSW,210,0.0,1.0,88,0.03,,---,0.11,VWS V13.01,2013-07-04 16:33:00,
2013-07-04 12:38:00,75.1,71.0,29.91,SSW,211,0.0,3.0,87,0.03,,---,0.11,VWS V13.01,2013-07-04 16:38:00,
2013-07-04 12:43:00,75.3,71.2,29.91,SSW,211,0.0,3.0,87,0.03,,---,0.11,VWS V13.01,2013-07-04 16:43:00,
2013-07-04 12:48:00,75.2,71.4,29.91,SW,227,3.0,6.0,88,0.03,,---,0.11,VWS V13.01,2013-07-04 16:48:00,
2013-07-04 12:53:00,75.3,71.5,29.91,SW,230,0.0,6.0,88,0.03,,---,0.11,VWS V13.01,2013-07-04 16:53:00,
2013-07-04 12:58:00,75.5,70.7,29.90,SW,230,0.0,6.0,85,0.03,,---,0.11,VWS V13.01,2013-07-04 16:58:00,
2013-07-04 13:03:00,75.4,70.6,29.90,South,188,0.0,5.0,85,0.00,,---,0.11,VWS V13.01,2013-07-04 17:03:00,
2013-07-04 13:08:00,75.4,70.6,29.90,SW,219,5.0,6.0,85,0.00,,---,0.11,VWS V13.01,2013-07-04 17:08:00,
2013-07-04 13:13:00,75.5,71.4,29.90,SW,226,0.0,7.0,87,0.00,,---,0.11,VWS V13.01,2013-07-04 17:13:00,
2013-07-04 13:18:00,75.7,71.2,29.90,SW,215,0.0,7.0,86,0.00,,---,0.11,VWS V13.01,2013-07-04 17:18:00,
2013-07-04 13:24:00,76.0,71.5,29.90,SW,215,0.0,7.0,86,0.00,,---,0.11,VWS V13.01,2013-07-04 17:24:00,
2013-07-04 13:29:00,76.3,71.5,29.90,SW,215,0.0,7.0,85,0.00,,---,0.11,VWS V13.01,2013-07-04 17:29:00,
2013-07-04 13:34:00,76.5,71.3,29.90,SW,215,0.0,4.0,84,0.00,,---,0.11,VWS V13.01,2013-07-04 17:34:00,
2013-07-04 13:39:00,76.7,71.2,29.90,SW,215,0.0,4.0,83,0.00,,---,0.11,VWS V13.01,2013-07-04 17:39:00,
2013-07-04 13:44:00,77.0,71.4,29.90,SW,225,0.0,6.0,83,0.00,,---,0.11,VWS V13.01,2013-07-04 17:44:00,
2013-07-04 13:49:00,77.2,71.3,29.90,SW,232,0.0,6.0,82,0.00,,---,0.11,VWS V13.01,2013-07-04 17:49:00,
2013-07-04 13:54:00,77.5,71.9,29.90,SW,234,1.0,6.0,83,0.00,,---,0.11,VWS V13.01,2013-07-04 17:54:00,
2013-07-04 13:59:00,77.8,71.5,29.90,West,267,0.0,9.0,81,0.00,,---,0.11,VWS V13.01,2013-07-04 17:59:00,
2013-07-04 14:04:00,78.0,71.7,29.89,West,268,8.0,9.0,81,0.00,,---,0.11,VWS V13.01,2013-07-04 18:04:00,
2013-07-04 14:09:00,77.9,71.2,29.89,West,261,0.0,9.0,80,0.00,,---,0.11,VWS V13.01,2013-07-04 18:09:00,
2013-07-04 14:14:00,78.0,71.7,29.90,West,261,1.0,9.0,81,0.00,,---,0.11,VWS V13.01,2013-07-04 18:14:00,
2013-07-04 14:19:00,78.5,72.6,29.89,West,264,0.0,9.0,82,0.00,,---,0.11,VWS V13.01,2013-07-04 18:19:00,
2013-07-04 14:25:00,78.9,72.2,29.89,West,265,4.0,9.0,80,0.00,,---,0.11,VWS V13.01,2013-07-04 18:25:00,
2013-07-04 14:30:00,79.5,71.7,29.89,West,272,4.0,9.0,77,0.00,,---,0.11,VWS V13.01,2013-07-04 18:30:00,
2013-07-04 14:35:00,79.4,71.9,29.89,West,268,5.0,12.0,78,0.00,,---,0.11,VWS V13.01,2013-07-04 18:35:00,
2013-07-04 14:40:00,79.1,72.0,29.89,West,269,0.0,12.0,79,0.00,,---,0.11,VWS V13.01,2013-07-04 18:40:00,
2013-07-04 14:45:00,79.3,72.6,29.89,West,267,7.0,12.0,80,0.00,,---,0.11,VWS V13.01,2013-07-04 18:45:00,
2013-07-04 14:50:00,79.2,70.6,29.88,WSW,252,4.0,12.0,75,0.00,,---,0.11,VWS V13.01,2013-07-04 18:50:00,
2013-07-04 14:55:00,79.4,71.6,29.88,WSW,250,1.0,12.0,77,0.00,,---,0.11,VWS V13.01,2013-07-04 18:55:00,
2013-07-04 15:00:00,79.3,71.1,29.88,WSW,251,0.0,0.0,76,0.00,,---,0.11,VWS V13.01,2013-07-04 19:00:00,
2013-07-04 15:05:00,79.5,71.3,29.88,WSW,250,0.0,0.0,76,0.00,,---,0.11,VWS V13.01,2013-07-04 19:05:00,
2013-07-04 15:10:00,79.1,71.7,29.88,WSW,251,3.0,6.0,78,0.00,,---,0.11,VWS V13.01,2013-07-04 19:10:00,
2013-07-04 15:15:00,78.9,70.7,29.88,WSW,253,1.0,7.0,76,0.00,,---,0.11,VWS V13.01,2013-07-04 19:15:00,
2013-07-04 15:20:00,79.1,72.4,29.88,WSW,254,3.0,7.0,80,0.00,,---,0.11,VWS V13.01,2013-07-04 19:20:00,
2013-07-04 15:26:00,79.2,71.0,29.87,WSW,254,3.0,7.0,76,0.00,,---,0.11,VWS V13.01,2013-07-04 19:26:00,
2013-07-04 15:31:00,80.0,72.2,29.87,WSW,254,5.0,6.0,77,0.00,,---,0.11,VWS V13.01,2013-07-04 19:31:00,
2013-07-04 15:36:00,80.7,71.7,29.87,West,261,2.0,7.0,74,0.00,,---,0.11,VWS V13.01,2013-07-04 19:36:00,
2013-07-04 15:41:00,80.9,72.2,29.87,West,260,0.0,7.0,75,0.00,,---,0.11,VWS V13.01,2013-07-04 19:41:00,
2013-07-04 15:46:00,80.7,70.8,29.87,SW,236,0.0,8.0,72,0.00,,---,0.11,VWS V13.01,2013-07-04 19:46:00,
2013-07-04 15:51:00,80.9,70.2,29.87,SW,231,0.0,8.0,70,0.00,,---,0.11,VWS V13.01,2013-07-04 19:51:00,
2013-07-04 15:56:00,81.0,71.5,29.87,SW,229,0.0,8.0,73,0.00,,---,0.11,VWS V13.01,2013-07-04 19:56:00,
2013-07-04 16:01:00,81.4,70.7,29.86,West,269,2.0,9.0,70,0.00,,---,0.11,VWS V13.01,2013-07-04 20:01:00,
2013-07-04 16:06:00,82.0,70.8,29.86,West,269,7.0,12.0,69,0.00,,---,0.11,VWS V13.01,2013-07-04 20:06:00,
2013-07-04 16:11:00,81.9,69.9,29.86,NNW,332,0.0,12.0,67,0.00,,---,0.11,VWS V13.01,2013-07-04 20:11:00,
2013-07-04 16:16:00,81.9,69.9,29.86,West,270,0.0,20.0,67,0.00,,---,0.11,VWS V13.01,2013-07-04 20:16:00,
2013-07-04 16:21:00,81.8,70.6,29.86,West,259,6.0,20.0,69,0.00,,---,0.11,VWS V13.01,2013-07-04 20:21:00,
2013-07-04 16:26:00,81.8,69.3,29.86,West,267,6.0,20.0,66,0.00,,---,0.11,VWS V13.01,2013-07-04 20:26:00,
2013-07-04 16:31:00,81.6,69.6,29.86,West,276,9.0,12.0,67,0.00,,---,0.11,VWS V13.01,2013-07-04 20:31:00,
2013-07-04 16:37:00,81.4,70.3,29.86,West,275,9.0,12.0,69,0.00,,---,0.11,VWS V13.01,2013-07-04 20:37:00,
2013-07-04 16:42:00,81.1,70.4,29.86,West,272,10.0,12.0,70,0.00,,---,0.11,VWS V13.01,2013-07-04 20:42:00,
2013-07-04 16:47:00,81.2,69.6,29.85,West,267,5.0,12.0,68,0.00,,---,0.11,VWS V13.01,2013-07-04 20:47:00,
2013-07-04 16:52:00,81.0,69.0,29.85,West,275,7.0,13.0,67,0.00,,---,0.11,VWS V13.01,2013-07-04 20:52:00,
2013-07-04 16:57:00,80.9,69.8,29.85,West,272,4.0,13.0,69,0.00,,---,0.11,VWS V13.01,2013-07-04 20:57:00,
2013-07-04 17:02:00,81.6,71.7,29.85,West,280,6.0,9.0,72,0.00,,---,0.11,VWS V13.01,2013-07-04 21:02:00,
2013-07-04 17:07:00,82.2,70.2,29.85,West,270,11.0,11.0,67,0.00,,---,0.11,VWS V13.01,2013-07-04 21:07:00,
2013-07-04 17:12:00,81.8,70.2,29.85,West,272,1.0,11.0,68,0.00,,---,0.11,VWS V13.01,2013-07-04 21:12:00,
2013-07-04 17:17:00,81.0,70.7,29.85,WSW,254,0.0,11.0,71,0.00,,---,0.11,VWS V13.01,2013-07-04 21:17:00,
2013-07-04 17:23:00,80.6,69.5,29.85,West,271,0.0,11.0,69,0.00,,---,0.11,VWS V13.01,2013-07-04 21:23:00,
2013-07-04 17:28:00,80.6,69.9,29.85,West,272,0.0,11.0,70,0.00,,---,0.11,VWS V13.01,2013-07-04 21:28:00,
2013-07-04 17:33:00,80.7,70.4,29.85,West,272,0.0,1.0,71,0.00,,---,0.11,VWS V13.01,2013-07-04 21:33:00,
2013-07-04 17:38:00,81.1,72.4,29.85,West,272,0.0,1.0,75,0.00,,---,0.11,VWS V13.01,2013-07-04 21:38:00,
2013-07-04 17:43:00,81.4,70.7,29.85,West,272,0.0,1.0,70,0.00,,---,0.11,VWS V13.01,2013-07-04 21:43:00,
2013-07-04 17:48:00,81.9,71.6,29.85,West,272,5.0,6.0,71,0.00,,---,0.11,VWS V13.01,2013-07-04 21:48:00,
2013-07-04 17:53:00,81.0,70.7,29.85,West,260,0.0,7.0,71,0.00,,---,0.11,VWS V13.01,2013-07-04 21:53:00,
2013-07-04 17:58:00,80.6,71.2,29.85,West,260,1.0,7.0,73,0.00,,---,0.11,VWS V13.01,2013-07-04 21:58:00,
2013-07-04 18:03:00,80.7,70.8,29.85,West,260,2.0,6.0,72,0.00,,---,0.11,VWS V13.01,2013-07-04 22:03:00,
2013-07-04 18:08:00,80.6,71.2,29.85,West,272,6.0,9.0,73,0.00,,---,0.11,VWS V13.01,2013-07-04 22:08:00,
2013-07-04 18:13:00,80.4,70.1,29.85,West,273,8.0,9.0,71,0.00,,---,0.11,VWS V13.01,2013-07-04 22:13:00,
2013-07-04 18:19:00,80.6,71.9,29.85,West,273,1.0,9.0,75,0.00,,---,0.11,VWS V13.01,2013-07-04 22:19:00,
2013-07-04 18:24:00,81.2,70.9,29.85,West,280,7.0,9.0,71,0.00,,---,0.11,VWS V13.01,2013-07-04 22:24:00,
2013-07-04 18:29:00,81.5,71.2,29.85,West,279,2.0,9.0,71,0.00,,---,0.11,VWS V13.01,2013-07-04 22:29:00,
2013-07-04 18:34:00,81.0,71.5,29.86,West,273,5.0,6.0,73,0.00,,---,0.11,VWS V13.01,2013-07-04 22:34:00,
2013-07-04 18:39:00,80.9,71.8,29.86,West,272,0.0,6.0,74,0.00,,---,0.11,VWS V13.01,2013-07-04 22:39:00,
2013-07-04 18:44:00,81.1,72.4,29.86,West,272,1.0,6.0,75,0.00,,---,0.11,VWS V13.01,2013-07-04 22:44:00,
2013-07-04 18:49:00,81.0,72.7,29.85,West,273,0.0,6.0,76,0.00,,---,0.11,VWS V13.01,2013-07-04 22:49:00,
2013-07-04 18:54:00,80.4,71.8,29.85,West,273,0.0,6.0,75,0.00,,---,0.11,VWS V13.01,2013-07-04 22:54:00,
2013-07-04 18:59:00,79.7,72.6,29.85,West,272,1.0,6.0,79,0.00,,---,0.11,VWS V13.01,2013-07-04 22:59:00,
2013-07-04 19:04:00,78.7,72.8,29.86,West,272,0.0,2.0,82,0.00,,---,0.11,VWS V13.01,2013-07-04 23:04:00,
2013-07-04 19:10:00,77.7,72.5,29.86,West,273,0.0,2.0,84,0.00,,---,0.11,VWS V13.01,2013-07-04 23:10:00,
2013-07-04 19:15:00,77.4,72.9,29.86,West,272,0.0,2.0,86,0.00,,---,0.11,VWS V13.01,2013-07-04 23:15:00,
2013-07-04 19:20:00,78.1,72.2,29.86,West,272,0.0,2.0,82,0.00,,---,0.11,VWS V13.01,2013-07-04 23:20:00,
2013-07-04 19:25:00,78.9,71.1,29.86,WSW,243,5.0,8.0,77,0.00,,---,0.11,VWS V13.01,2013-07-04 23:25:00,
2013-07-04 19:30:00,78.2,70.0,29.87,SSW,210,0.0,1.0,76,0.00,,---,0.11,VWS V13.01,2013-07-04 23:30:00,
2013-07-04 19:35:00,77.8,70.0,29.87,SW,214,6.0,10.0,77,0.00,,---,0.11,VWS V13.01,2013-07-04 23:35:00,
2013-07-04 19:40:00,77.2,69.8,29.88,SW,229,2.0,10.0,78,0.00,,---,0.11,VWS V13.01,2013-07-04 23:40:00,
2013-07-04 19:45:00,76.7,70.1,29.87,SW,228,6.0,10.0,80,0.00,,---,0.11,VWS V13.01,2013-07-04 23:45:00,
2013-07-04 19:50:00,76.3,68.9,29.87,SSW,207,0.0,10.0,78,0.00,,---,0.11,VWS V13.01,2013-07-04 23:50:00,
2013-07-04 19:55:00,76.0,70.1,29.87,SSW,207,0.0,10.0,82,0.00,,---,0.11,VWS V13.01,2013-07-04 23:55:00,
2013-07-04 20:00:00,75.8,69.6,29.87,SSW,206,2.0,4.0,81,0.00,,---,0.11,VWS V13.01,2013-07-05 00:00:00,
2013-07-04 20:05:00,75.5,70.0,29.86,SSW,206,1.0,4.0,83,0.00,,---,0.11,VWS V13.01,2013-07-05 00:05:00,
2013-07-04 20:11:00,75.5,70.7,29.87,SSW,206,0.0,5.0,85,0.00,,---,0.11,VWS V13.01,2013-07-05 00:11:00,
2013-07-04 20:16:00,75.2,69.7,29.87,SSW,206,0.0,5.0,83,0.00,,---,0.11,VWS V13.01,2013-07-05 00:16:00,
2013-07-04 20:21:00,75.4,69.2,29.87,SSW,206,3.0,5.0,81,0.00,,---,0.11,VWS V13.01,2013-07-05 00:21:00,
2013-07-04 20:26:00,75.4,69.9,29.86,SSW,206,0.0,5.0,83,0.00,,---,0.11,VWS V13.01,2013-07-05 00:26:00,
2013-07-04 20:31:00,74.8,69.7,29.86,SSW,206,5.0,6.0,84,0.00,,---,0.11,VWS V13.01,2013-07-05 00:31:00,
2013-07-04 20:36:00,74.7,69.2,29.86,SSW,206,2.0,6.0,83,0.00,,---,0.11,VWS V13.01,2013-07-05 00:36:00,
2013-07-04 20:41:00,74.5,70.0,29.87,SSW,206,0.0,6.0,86,0.00,,---,0.11,VWS V13.01,2013-07-05 00:41:00,
2013-07-04 20:46:00,74.1,70.0,29.87,SSW,206,0.0,6.0,87,0.00,,---,0.11,VWS V13.01,2013-07-05 00:46:00,
2013-07-04 20:51:00,73.5,69.7,29.86,SSW,206,0.0,6.0,88,0.00,,---,0.11,VWS V13.01,2013-07-05 00:51:00,
2013-07-04 20:56:00,72.9,69.5,29.86,SSW,206,0.0,6.0,89,0.00,,---,0.11,VWS V13.01,2013-07-05 00:56:00,
2013-07-04 21:02:00,72.4,69.3,29.86,SSW,206,0.0,0.0,90,0.00,,---,0.11,VWS V13.01,2013-07-05 01:02:00,
2013-07-04 21:07:00,71.7,69.3,29.86,SSW,206,0.0,0.0,92,0.00,,---,0.11,VWS V13.01,2013-07-05 01:07:00,
2013-07-04 21:12:00,71.3,68.9,29.87,SSW,206,0.0,0.0,92,0.00,,---,0.11,VWS V13.01,2013-07-05 01:12:00,
2013-07-04 21:17:00,70.9,68.5,29.87,SSW,206,0.0,0.0,92,0.00,,---,0.11,VWS V13.01,2013-07-05 01:17:00,
2013-07-04 21:22:00,70.6,68.5,29.87,SSW,206,0.0,0.0,93,0.00,,---,0.11,VWS V13.01,2013-07-05 01:22:00,
2013-07-04 21:27:00,70.4,68.3,29.87,SSW,206,0.0,0.0,93,0.00,,---,0.11,VWS V13.01,2013-07-05 01:27:00,
2013-07-04 21:32:00,70.3,68.2,29.87,SSW,206,0.0,0.0,93,0.00,,---,0.11,VWS V13.01,2013-07-05 01:32:00,
2013-07-04 21:37:00,70.1,68.3,29.87,SSW,206,0.0,0.0,94,0.00,,---,0.11,VWS V13.01,2013-07-05 01:37:00,
2013-07-04 21:42:00,69.9,68.1,29.87,SSW,206,0.0,0.0,94,0.00,,---,0.11,VWS V13.01,2013-07-05 01:42:00,
2013-07-04 21:45:00,69.7,67.9,29.87,SSW,206,0.0,0.0,94,0.00,,---,0.11,VWS V13.01,2013-07-05 01:45:00,
2013-07-04 21:50:00,69.5,67.7,29.87,SSW,206,0.0,0.0,94,0.00,,---,0.11,VWS V13.01,2013-07-05 01:50:00,
2013-07-04 21:55:00,69.3,67.8,29.87,SSW,206,0.0,0.0,95,0.00,,---,0.11,VWS V13.01,2013-07-05 01:55:00,
2013-07-04 22:00:00,69.1,67.6,29.87,SSW,206,0.0,0.0,95,0.00,,---,0.11,VWS V13.01,2013-07-05 02:00:00,
2013-07-04 22:05:00,69.0,67.8,29.87,SSW,206,0.0,0.0,96,0.00,,---,0.11,VWS V13.01,2013-07-05 02:05:00,
2013-07-04 22:10:00,69.0,67.8,29.87,SSW,206,0.0,0.0,96,0.00,,---,0.11,VWS V13.01,2013-07-05 02:10:00,
2013-07-04 22:15:00,68.8,67.3,29.87,SSW,206,0.0,0.0,95,0.00,,---,0.11,VWS V13.01,2013-07-05 02:15:00,
2013-07-04 22:20:00,68.6,67.4,29.87,SSW,206,0.0,1.0,96,0.00,,---,0.11,VWS V13.01,2013-07-05 02:20:00,
2013-07-04 22:26:00,68.4,67.2,29.87,SSW,206,0.0,1.0,96,0.00,,---,0.11,VWS V13.01,2013-07-05 02:26:00,
2013-07-04 22:31:00,68.3,67.1,29.87,SSW,206,0.0,0.0,96,0.00,,---,0.11,VWS V13.01,2013-07-05 02:31:00,
2013-07-04 22:36:00,68.2,67.0,29.88,SSW,206,0.0,0.0,96,0.00,,---,0.11,VWS V13.01,2013-07-05 02:36:00,
2013-07-04 22:41:00,67.9,66.7,29.87,SSW,206,0.0,1.0,96,0.00,,---,0.11,VWS V13.01,2013-07-05 02:41:00,
2013-07-04 22:46:00,67.7,66.5,29.88,SSW,206,0.0,1.0,96,0.00,,---,0.11,VWS V13.01,2013-07-05 02:46:00,
2013-07-04 22:51:00,67.7,66.8,29.88,SSW,206,0.0,1.0,97,0.00,,---,0.11,VWS V13.01,2013-07-05 02:51:00,
2013-07-04 22:56:00,67.8,66.9,29.88,SSW,206,0.0,1.0,97,0.00,,---,0.11,VWS V13.01,2013-07-05 02:56:00,
2013-07-04 23:01:00,67.9,67.0,29.88,SSW,206,0.0,0.0,97,0.00,,---,0.11,VWS V13.01,2013-07-05 03:01:00,
2013-07-04 23:03:00,67.9,67.0,29.88,SSW,206,0.0,0.0,97,0.00,,---,0.11,VWS V13.01,2013-07-05 03:03:00,
2013-07-04 23:08:00,67.9,67.0,29.88,SSW,206,0.0,0.0,97,0.00,,---,0.11,VWS V13.01,2013-07-05 03:08:00,
2013-07-04 23:13:00,67.7,66.8,29.88,SSW,206,0.0,0.0,97,0.00,,---,0.11,VWS V13.01,2013-07-05 03:13:00,
2013-07-04 23:18:00,67.7,66.8,29.88,SSW,206,0.0,0.0,97,0.00,,---,0.11,VWS V13.01,2013-07-05 03:18:00,
2013-07-04 23:23:00,67.9,67.0,29.88,SSW,206,0.0,0.0,97,0.00,,---,0.11,VWS V13.01,2013-07-05 03:23:00,
2013-07-04 23:29:00,67.9,67.0,29.88,SSW,206,0.0,0.0,97,0.00,,---,0.11,VWS V13.01,2013-07-05 03:29:00,
2013-07-04 23:34:00,68.0,67.4,29.88,SSW,206,0.0,0.0,98,0.00,,---,0.11,VWS V13.01,2013-07-05 03:34:00,
2013-07-04 23:39:00,68.0,67.4,29.88,SSW,206,0.0,0.0,98,0.00,,---,0.11,VWS V13.01,2013-07-05 03:39:00,
2013-07-04 23:44:00,67.9,67.0,29.88,SSW,206,0.0,1.0,97,0.00,,---,0.11,VWS V13.01,2013-07-05 03:44:00,
2013-07-04 23:49:00,68.0,67.4,29.87,SSW,206,0.0,1.0,98,0.00,,---,0.11,VWS V13.01,2013-07-05 03:49:00,
2013-07-04 23:54:00,68.2,67.6,29.87,SSW,206,0.0,1.0,98,0.00,,---,0.11,VWS V13.01,2013-07-05 03:54:00,
2013-07-04 23:59:00,68.2,67.6,29.87,SSW,206,0.0,1.0,98,0.00,,---,0.11,VWS V13.01,2013-07-05 03:59:00,